[[{"header":{"parameterUnit":"m.s-1","parameterCategory":1,"la1":30.2991,"la2":30.254,"lo1":-89.0895,"lo2":-89.0444,"dy":0.0017,"dx":0.0017,"nx":28,"ny":28,"refTime":"2024-12-07T03:00:00:Z","depth":0,"parameterNumber":2,"parameterNumberName":"U-component_of_WINDS"},"data":[0,0,0,0,0,0,0,0,0,0,0,0,0,0,0,0,0,0,0,0,0,0,0,0,0,0,0,0,0,0,0,0,0,0,0,0,0,0,0,0,0,0,0,0,0,0,0,0,0,0,0,0,0,0,0,0,0,0,-0.7536,-0.7537,0,-0.7551,-0.7551,-0.7551,-0.7531,-0.7531,-0.753,-0.7529,-0.7545,-0.7546,-0.7547,0,0,0,0,0,0,0,0,0,0,0,0,0,-0.7492,-0.7493,-0.7536,-0.7537,-0.7537,-0.7551,-0.7551,-0.7551,-0.7532,-0.7531,-0.753,-0.7529,-0.7545,-0.7546,-0.7547,0,0,0,0,0,0,0,0,0,0,0,0,0,-0.751,-0.7494,-0.7536,-0.7529,-0.7528,-0.7551,-0.7551,-0.7551,-0.7532,-0.7531,-0.753,-0.7529,-0.7544,-0.7546,-0.7547,-0.7578,0,0,-0.7552,-0.7553,0,0,0,0,0,0,0,0,-0.7509,-0.7511,-0.753,-0.7529,-0.7529,-0.7538,-0.7541,-0.756,-0.7532,-0.753,-0.7529,-0.7528,-0.7544,-0.7545,-0.755,-0.7579,-0.758,-0.7552,-0.7553,-0.7554,-0.7555,0,0,0,0,0,0,0,-0.7508,-0.7511,-0.7542,-0.753,-0.7529,-0.7525,-0.7526,-0.7545,-0.7543,-0.753,-0.7529,-0.7531,-0.7543,-0.7549,-0.755,-0.758,-0.7552,-0.7554,-0.7555,-0.7555,-0.7635,-0.7636,0,0,0,0,0,0,-0.7507,-0.751,-0.7542,-0.7543,-0.7516,-0.7526,-0.7528,-0.7536,-0.7543,-0.7542,-0.7532,-0.753,-0.7546,-0.7549,-0.7551,-0.7588,-0.7554,-0.7556,-0.7556,-0.7633,-0.7635,-0.7636,0,0,0,0,0,0,-0.7506,-0.751,-0.7541,-0.7526,-0.7529,-0.7528,-0.7538,-0.7537,-0.7543,-0.7544,-0.7543,-0.7538,-0.7546,-0.7549,-0.7572,-0.7588,-0.7556,-0.7558,-0.7632,-0.7634,-0.7635,-0.7661,0,0,0,0,0,0,-0.7505,-0.751,-0.7522,-0.7526,-0.753,-0.7562,-0.7539,-0.7538,-0.7545,-0.7543,-0.7549,-0.7549,-0.7545,-0.7569,-0.7573,-0.759,-0.7559,-0.7631,-0.7633,-0.7635,-0.7659,-0.7664,-0.7668,0,0,0,0,0,-0.7504,-0.7529,-0.7523,-0.7527,-0.7545,-0.7563,-0.7565,-0.7559,-0.7547,-0.7559,-0.7559,-0.7549,-0.7585,-0.7572,-0.7576,-0.7593,-0.763,-0.7632,-0.7635,-0.7657,-0.7663,-0.7668,0,0,0,0,0,0,-0.7527,-0.7529,-0.7522,-0.755,-0.7556,-0.7559,-0.7574,-0.7566,-0.7576,-0.7574,-0.7567,-0.7568,-0.7593,-0.7595,-0.758,-0.7623,-0.7605,-0.7609,-0.7621,-0.7626,-0.7631,-0.763,-0.756,0,0,0,0,0,-0.7536,-0.755,-0.7551,-0.7575,-0.7578,-0.7576,-0.7583,-0.7578,-0.7585,-0.7587,-0.7589,-0.7596,-0.7609,-0.7618,-0.7629,-0.7659,-0.766,-0.7673,-0.7677,-0.7681,-0.7684,-0.7699,-0.7705,-0.7644,-0.7644,-0.7644,0,0,-0.7553,-0.7556,-0.7565,-0.758,-0.7584,-0.7598,-0.7578,-0.7595,-0.7605,-0.759,-0.7611,-0.7613,-0.762,-0.7646,-0.7658,-0.7649,-0.7701,-0.7684,-0.7687,-0.7688,-0.7703,-0.7708,-0.7713,-0.7646,-0.7646,-0.7646,0,0,-0.7593,-0.7596,-0.7617,-0.7621,-0.7627,-0.7625,-0.763,-0.7634,-0.7635,-0.7656,-0.7645,-0.7657,-0.768,-0.7685,-0.7691,-0.7731,-0.7722,-0.7735,-0.7758,-0.7773,-0.7778,-0.7782,-0.7796,-0.7802,-0.7738,-0.7738,-0.7738,0,-0.7614,-0.7635,-0.7628,-0.7645,-0.7652,-0.7637,-0.7658,-0.7663,-0.7673,-0.7678,-0.7667,-0.7695,-0.7698,-0.7725,-0.7735,-0.774,-0.7745,-0.7735,-0.7777,-0.7782,-0.7785,-0.7799,-0.7805,-0.774,-0.7739,-0.7739,-0.7739,0,-0.7661,-0.7676,-0.7692,-0.7701,-0.7709,-0.7728,-0.7724,-0.7733,-0.7727,-0.7726,-0.7747,-0.7751,-0.7763,-0.7769,-0.7764,-0.7795,-0.779,-0.7778,-0.7761,-0.7793,-0.7806,-0.7811,-0.7742,-0.7741,-0.7741,-0.774,0,0,-0.7717,-0.7722,-0.7728,-0.7731,-0.7737,-0.7748,-0.7766,-0.7777,-0.7785,-0.7792,-0.7807,-0.7826,-0.7815,-0.7822,-0.7817,-0.783,-0.7861,-0.7817,-0.7817,-0.7825,-0.7896,-0.7905,-0.7911,-0.7855,-0.7856,-0.7857,-0.7896,0,-0.7757,-0.7787,-0.7781,-0.7811,-0.7825,-0.7811,-0.7826,-0.7831,-0.783,-0.7842,-0.7841,-0.7854,-0.7839,-0.7843,-0.7855,-0.7855,-0.7876,-0.7852,-0.7869,-0.787,-0.7868,-0.7918,-0.7927,-0.7964,-0.7901,-0.7901,-0.7902,0,-0.7807,-0.7816,-0.7847,-0.785,-0.7855,-0.7869,-0.7879,-0.789,-0.7895,-0.7893,-0.79,-0.7892,-0.7909,-0.7891,-0.7915,-0.7899,-0.7905,-0.7906,-0.7907,-0.7909,-0.7888,-0.7921,-0.7975,-0.7981,-0.791,-0.7909,-0.7909,0,-0.7846,-0.7865,-0.7886,-0.7889,-0.7893,-0.7903,-0.7905,-0.7909,-0.7916,-0.7924,-0.7929,-0.7939,-0.7945,-0.7953,-0.7948,-0.7935,-0.7973,-0.7954,-0.7972,-0.7972,-0.7982,-0.7981,-0.8038,-0.7985,-0.7985,-0.7985,-0.7985,0,-0.7891,-0.7911,-0.7903,-0.7916,-0.7937,-0.7929,-0.7951,-0.7951,-0.7955,-0.7967,-0.7956,-0.7968,-0.7961,-0.7972,-0.7968,-0.7989,-0.7991,-0.7991,-0.799,-0.7992,-0.7992,-0.7997,-0.7994,-0.7986,-0.7986,-0.7986,-0.7985,0,-0.7937,-0.7933,-0.7955,-0.7956,-0.7957,-0.7973,-0.7974,-0.7986,-0.7983,-0.8,-0.8003,-0.8,-0.8013,-0.8008,-0.8022,-0.802,-0.8046,-0.8041,-0.8044,-0.8043,-0.8062,-0.806,-0.8124,-0.8132,-0.8073,-0.8074,-0.8074,0,-0.7967,-0.7982,-0.7984,-0.7992,-0.7994,-0.8007,-0.8013,-0.8006,-0.8013,-0.802,-0.8031,-0.8043,-0.8052,-0.8073,-0.8072,-0.8083,-0.8079,-0.81,-0.808,-0.8082,-0.8079,-0.8079,-0.808,-0.8104,-0.8105,-0.8106,-0.8106,0,-0.802,-0.8017,-0.8027,-0.8036,-0.8044,-0.8051,-0.8057,-0.8064,-0.8057,-0.8066,-0.8079,-0.8086,-0.8099,-0.8111,-0.8121,-0.8123,-0.8113,-0.8112,-0.8117,-0.812,-0.8121,-0.8121,-0.8055,-0.8111,-0.811,-0.811,-0.811,-0.811,-0.8059,-0.8071,-0.8075,-0.8086,-0.809,-0.8095,-0.8107,-0.8105,-0.8116,-0.8126,-0.8121,-0.8136,-0.814,-0.8151,-0.8154,-0.8166,-0.8158,-0.8165,-0.8167,-0.8169,-0.8171,-0.8119,-0.8167,-0.8167,-0.8167,-0.8167,-0.8167,0,-0.8112,-0.8113,-0.8123,-0.8132,-0.8141,-0.813,-0.8136,-0.8144,-0.8157,-0.8162,-0.8171,-0.8185,-0.8196,-0.8196,-0.8206,-0.8215,-0.8211,-0.8218,-0.8218,-0.8218,-0.8178,-0.8173,-0.8221,-0.8221,-0.8221,-0.8221,-0.8221,-0.8221,-0.814,-0.816,-0.8157,-0.8179,-0.818,-0.8194,-0.8198,-0.8203,-0.8207,-0.8223,-0.8232,-0.8231,-0.8234,-0.8244,-0.8253,-0.8253,-0.8257,-0.8266,-0.8264,-0.8227,-0.8221,-0.8216,-0.8211,-0.8267,-0.8267,-0.8304,-0.8304,-0.8304]},{"header":{"parameterUnit":"m.s-1","parameterCategory":1,"la1":30.2991,"la2":30.254,"lo1":-89.0895,"lo2":-89.0444,"dy":0.0017,"dx":0.0017,"nx":28,"ny":28,"refTime":"2024-12-07T03:00:00:Z","depth":0,"parameterNumber":3,"parameterNumberName":"V-component_of_WINDS"},"data":[0,0,0,0,0,0,0,0,0,0,0,0,0,0,0,0,0,0,0,0,0,0,0,0,0,0,0,0,0,0,0,0,0,0,0,0,0,0,0,0,0,0,0,0,0,0,0,0,0,0,0,0,0,0,0,0,0,0,-5.1073,-5.1073,0,-5.1122,-5.1122,-5.1123,-5.1082,-5.108,-5.1078,-5.1077,-5.1122,-5.1125,-5.1128,0,0,0,0,0,0,0,0,0,0,0,0,0,-5.094,-5.0943,-5.1073,-5.1073,-5.1074,-5.1121,-5.1122,-5.1123,-5.1082,-5.108,-5.1078,-5.1076,-5.1121,-5.1124,-5.1128,0,0,0,0,0,0,0,0,0,0,0,0,0,-5.0994,-5.0944,-5.1073,-5.1059,-5.1059,-5.1121,-5.1122,-5.1123,-5.1082,-5.108,-5.1077,-5.1075,-5.112,-5.1124,-5.1128,-5.1205,0,0,-5.1141,-5.1143,0,0,0,0,0,0,0,0,-5.0991,-5.0999,-5.1061,-5.106,-5.106,-5.1093,-5.1092,-5.115,-5.1083,-5.1073,-5.1077,-5.1074,-5.1114,-5.1119,-5.1133,-5.1207,-5.1209,-5.1141,-5.1144,-5.1146,-5.1147,0,0,0,0,0,0,0,-5.0987,-5.0997,-5.1092,-5.1062,-5.1061,-5.105,-5.1055,-5.1103,-5.1107,-5.1074,-5.1071,-5.1078,-5.1113,-5.1129,-5.1134,-5.121,-5.1141,-5.1145,-5.1148,-5.1149,-5.135,-5.1353,0,0,0,0,0,0,-5.0986,-5.0994,-5.109,-5.1093,-5.1019,-5.1054,-5.106,-5.1085,-5.1107,-5.1108,-5.108,-5.1076,-5.1123,-5.1129,-5.1135,-5.1228,-5.1146,-5.115,-5.1152,-5.1347,-5.135,-5.1354,0,0,0,0,0,0,-5.0983,-5.0995,-5.1088,-5.1043,-5.1054,-5.1059,-5.1088,-5.1087,-5.1103,-5.1111,-5.1111,-5.1096,-5.1122,-5.113,-5.1189,-5.1229,-5.1152,-5.1155,-5.1344,-5.1348,-5.1352,-5.1412,0,0,0,0,0,0,-5.0979,-5.0994,-5.1024,-5.1044,-5.1057,-5.1142,-5.109,-5.109,-5.1111,-5.1106,-5.1126,-5.1127,-5.112,-5.1183,-5.1193,-5.1233,-5.1159,-5.134,-5.1346,-5.1351,-5.1407,-5.1418,-5.1428,0,0,0,0,0,-5.0975,-5.1038,-5.1026,-5.1038,-5.1095,-5.1144,-5.1151,-5.1144,-5.1114,-5.1144,-5.1149,-5.1126,-5.1223,-5.1189,-5.12,-5.1242,-5.1338,-5.1344,-5.135,-5.1402,-5.1416,-5.1427,0,0,0,0,0,0,-5.102,-5.104,-5.1027,-5.1098,-5.112,-5.1137,-5.1175,-5.1159,-5.1188,-5.1182,-5.117,-5.1175,-5.1237,-5.1245,-5.1207,-5.1318,-5.1275,-5.1284,-5.1311,-5.1324,-5.1334,-5.1331,-5.1162,0,0,0,0,0,-5.1039,-5.1079,-5.1093,-5.1155,-5.1167,-5.1169,-5.1191,-5.1183,-5.1205,-5.1213,-5.1223,-5.1243,-5.1278,-5.1301,-5.1334,-5.1407,-5.1411,-5.1442,-5.1452,-5.1461,-5.1469,-5.1509,-5.1523,-5.1374,-5.1374,-5.1374,0,0,-5.1077,-5.1093,-5.1119,-5.1165,-5.1181,-5.1222,-5.1177,-5.1222,-5.1252,-5.1219,-5.1276,-5.1284,-5.1306,-5.1373,-5.1403,-5.1382,-5.1511,-5.1469,-5.1476,-5.1479,-5.1517,-5.1531,-5.1544,-5.1379,-5.1378,-5.1377,0,0,-5.1168,-5.1184,-5.1238,-5.1256,-5.1281,-5.1283,-5.1296,-5.1316,-5.132,-5.1378,-5.1354,-5.1389,-5.1449,-5.1466,-5.1483,-5.1582,-5.1562,-5.1593,-5.1648,-5.1687,-5.1699,-5.1709,-5.1745,-5.1758,-5.1601,-5.1601,-5.1601,0,-5.1212,-5.1275,-5.1267,-5.1315,-5.1336,-5.131,-5.1364,-5.1381,-5.1415,-5.143,-5.1406,-5.1482,-5.1495,-5.1566,-5.1591,-5.1604,-5.1619,-5.1591,-5.1698,-5.1708,-5.1718,-5.1752,-5.1766,-5.1604,-5.1604,-5.1604,-5.1603,0,-5.1328,-5.1371,-5.1411,-5.1448,-5.1473,-5.1524,-5.1523,-5.1549,-5.154,-5.1543,-5.1602,-5.1617,-5.1653,-5.1669,-5.1659,-5.1739,-5.1725,-5.17,-5.1657,-5.1736,-5.1768,-5.1781,-5.161,-5.1608,-5.1607,-5.1606,0,0,-5.1448,-5.1481,-5.1496,-5.1513,-5.154,-5.1573,-5.1622,-5.1659,-5.1682,-5.1706,-5.1747,-5.1799,-5.1777,-5.1795,-5.1787,-5.1822,-5.1901,-5.1792,-5.1793,-5.1813,-5.199,-5.201,-5.2025,-5.1887,-5.189,-5.1892,-5.1989,0,-5.1541,-5.1629,-5.1624,-5.1706,-5.1746,-5.1723,-5.1766,-5.1786,-5.1791,-5.1825,-5.1829,-5.1867,-5.1834,-5.1845,-5.1879,-5.1884,-5.1936,-5.1877,-5.1925,-5.1926,-5.1921,-5.2042,-5.2062,-5.2153,-5.2001,-5.2003,-5.2005,0,-5.1661,-5.1693,-5.1779,-5.1802,-5.1818,-5.1857,-5.1891,-5.1924,-5.1947,-5.1947,-5.197,-5.1956,-5.2005,-5.1961,-5.2028,-5.1988,-5.2007,-5.2012,-5.2016,-5.202,-5.1971,-5.205,-5.2182,-5.2196,-5.2024,-5.2023,-5.2021,0,-5.1742,-5.1805,-5.1865,-5.188,-5.1907,-5.1936,-5.1948,-5.1968,-5.1991,-5.202,-5.2035,-5.2068,-5.2087,-5.2113,-5.2108,-5.2076,-5.2177,-5.2132,-5.2179,-5.2179,-5.2201,-5.22,-5.2338,-5.2212,-5.2212,-5.2212,-5.2212,0,-5.1846,-5.19,-5.1902,-5.1939,-5.1999,-5.1993,-5.2051,-5.206,-5.2079,-5.2117,-5.2098,-5.2133,-5.2125,-5.216,-5.2157,-5.2213,-5.2221,-5.2223,-5.2222,-5.2225,-5.2225,-5.2238,-5.2232,-5.2216,-5.2215,-5.2214,-5.2213,0,-5.1946,-5.195,-5.2014,-5.2036,-5.2042,-5.2085,-5.2103,-5.2138,-5.2141,-5.2189,-5.22,-5.2205,-5.2246,-5.2244,-5.2289,-5.2287,-5.2357,-5.2347,-5.235,-5.2348,-5.2395,-5.2391,-5.2547,-5.2567,-5.2428,-5.2429,-5.243,0,-5.2013,-5.2054,-5.2081,-5.2106,-5.2121,-5.2161,-5.2185,-5.218,-5.2205,-5.2235,-5.2266,-5.2305,-5.2337,-5.2402,-5.2409,-5.2443,-5.2435,-5.2488,-5.244,-5.2443,-5.2437,-5.2435,-5.2439,-5.2497,-5.2498,-5.25,-5.2501,0,-5.2132,-5.2132,-5.2168,-5.2206,-5.2235,-5.2264,-5.229,-5.2311,-5.2309,-5.2338,-5.238,-5.2405,-5.2452,-5.2491,-5.2524,-5.2535,-5.2518,-5.2516,-5.2529,-5.2533,-5.2533,-5.2534,-5.2376,-5.2512,-5.2511,-5.251,-5.251,-5.2509,-5.2217,-5.2254,-5.2279,-5.232,-5.234,-5.2365,-5.2399,-5.2408,-5.2444,-5.2484,-5.2478,-5.2525,-5.2547,-5.2591,-5.2605,-5.2641,-5.2622,-5.2641,-5.2645,-5.265,-5.2656,-5.2527,-5.2647,-5.2647,-5.2646,-5.2646,-5.2646,0,-5.2336,-5.2351,-5.2389,-5.2428,-5.2461,-5.2443,-5.2471,-5.2499,-5.2542,-5.2565,-5.2596,-5.2645,-5.2683,-5.2694,-5.273,-5.2757,-5.275,-5.2767,-5.2765,-5.2768,-5.267,-5.2656,-5.2772,-5.2772,-5.2772,-5.2772,-5.2772,-5.2772,-5.2401,-5.2462,-5.2466,-5.2536,-5.255,-5.2599,-5.2616,-5.2639,-5.2658,-5.2714,-5.2746,-5.2754,-5.2772,-5.2809,-5.2843,-5.2845,-5.286,-5.288,-5.2879,-5.2787,-5.2775,-5.2763,-5.2749,-5.2883,-5.2883,-5.2974,-5.2975,-5.2975]}]]